Regional Weather Roundup
Issued by NWS

Home | Current Version | Previous Version | Text Only | Print | Product List | Glossary On
Versions: 1 2 3 4 5 6 7 8 9 10 11 12 13 14 15 16 17 18 19 20 21 22 23 24 25 26 27 28 29 30 31 32 33 34 35 36 37 38 39 40 41 42 43 44 45 46 47 48 49 50
122
ASUS43 KBIS 060610
RWRND

NORTH DAKOTA REGIONAL WEATHER ROUNDUP
NATIONAL WEATHER SERVICE BISMARCK ND
100 AM CDT FRI MAY 06 2016

NOTE: "FAIR" INDICATES FEW OR NO CLOUDS BELOW 12,000 FEET WITH NO
SIGNIFICANT WEATHER AND/OR OBSTRUCTIONS TO VISIBILITY.


NDZ001>003-009>011-017-060700-
NORTHWEST NORTH DAKOTA

CITY           SKY/WX    TMP DP  RH WIND       PRES   REMARKS
WILLISTON      PTCLDY    61  41  47 CALM      29.79R
6HR MIN TEMP:  59; 6HR MAX TEMP:  87;

MINOT          PTCLDY    74  38  27 SW10      29.72S
MINOT AFB      PTCLDY    67  39  35 W8        29.71R
$$

NDZ018>021-031>035-040>046-060700-
SOUTHWEST NORTH DAKOTA

CITY           SKY/WX    TMP DP  RH WIND       PRES   REMARKS
BISMARCK       CLEAR     58  46  64 CALM      29.78S
6HR MIN TEMP:  58; 6HR MAX TEMP:  87;

DICKINSON      CLEAR     56  39  53 S10       29.80S
GARRISON         N/A     64  40  41 SW3       29.75F
6HR MIN TEMP:  61; 6HR MAX TEMP:  86;

HETTINGER ARPT CLOUDY    56  46  69 CALM      29.85S
$$

NDZ004>008-012>016-024-026-027-054-060700-
NORTHEAST NORTH DAKOTA

CITY           SKY/WX    TMP DP  RH WIND       PRES   REMARKS
GRAND FORKS    CLOUDY    66  42  41 SW12      29.70S
GRND FRKS AFB  CLOUDY    63  41  45 SW8       29.70S
DEVILS LAKE    CLEAR     66  45  46 SW13      29.73S
$$

NDZ022-023-025-028>030-036>039-047>053-060700-
SOUTHEAST NORTH DAKOTA

CITY           SKY/WX    TMP DP  RH WIND       PRES   REMARKS
FARGO          CLEAR     71  40  32 SW14      29.76F
6HR MIN TEMP:  71; 6HR MAX TEMP:  88;

JAMESTOWN      PTCLDY    59  48  67 S7        29.77F
$$





USA.gov is the U.S. government's official web portal to all federal, state and local government web resources and services.